TimeCET,TemperatureF,Dew PointF,Humidity,Sea Level PressureIn,VisibilityMPH,Wind Direction,Wind SpeedMPH,Gust SpeedMPH,PrecipitationIn,Events,Conditions,WindDirDegrees,DateUTC
12:55 AM,59.0,55.4,88,29.83,6.2,NNE,5.8,-,N/A,,Mostly Cloudy,30,2012-11-18 23:55:00
1:00 AM,59,55,82,29.84,6,NNE,5.8,,,,Partly Cloudy,30,2012-11-19 00:00:00
1:55 AM,59.0,55.4,88,29.83,5.6,North,5.8,-,N/A,,Mostly Cloudy,10,2012-11-19 00:55:00
2:55 AM,71.6,68.0,88,29.80,5.6,East,6.9,-,N/A,,Scattered Clouds,100,2012-11-19 01:55:00
3:55 AM,71.6,68.0,88,30.09,5.6,East,88.6,-,N/A,,Scattered Clouds,90,2012-11-19 02:55:00
4:00 AM,71,67,85,29.82,6,East,8.1,,,,Mist,90,2012-11-19 03:00:00
4:55 AM,59.0,55.4,88,29.80,6.2,East,8.1,-,N/A,,Scattered Clouds,80,2012-11-19 03:55:00
5:55 AM,59.0,53.6,82,29.80,6.2,East,8.1,-,N/A,,Scattered Clouds,90,2012-11-19 04:55:00
6:55 AM,59.0,53.6,82,29.80,6.2,ENE,6.9,-,N/A,,Scattered Clouds,60,2012-11-19 05:55:00
7:00 AM,59,54,77,29.82,7,ENE,6.9,,,,Mostly Cloudy,60,2012-11-19 06:00:00
7:55 AM,59.0,53.6,82,29.83,6.2,East,8.1,-,N/A,,Scattered Clouds,80,2012-11-19 06:55:00
8:55 AM,59.0,55.4,88,29.83,6.2,NE,5.8,-,N/A,,Partly Cloudy,40,2012-11-19 07:55:00
9:55 AM,60.8,51.8,72,29.83,6.2,ENE,3.5,-,N/A,,Scattered Clouds,70,2012-11-19 08:55:00
10:00 AM,62,52,61,29.85,7,ENE,3.5,,,,Mostly Cloudy,70,2012-11-19 09:00:00
10:55 AM,64.4,50.0,59,29.83,6.2,ESE,5.8,-,N/A,,Scattered Clouds,110,2012-11-19 09:55:00
11:55 AM,64.4,51.8,64,29.83,6.2,SE,8.1,-,N/A,,Scattered Clouds,130,2012-11-19 10:55:00
12:55 PM,64.4,51.8,64,29.80,6.2,SSW,5.8,-,N/A,,Scattered Clouds,200,2012-11-19 11:55:00
1:00 PM,65,52,53,29.82,12,SSW,5.8,,,,Mostly Cloudy,200,2012-11-19 12:00:00
1:55 PM,64.4,55.4,73,29.80,6.2,NNW,3.5,-,N/A,,Scattered Clouds,330,2012-11-19 12:55:00
2:55 PM,64.4,55.4,73,29.80,6.2,WNW,4.6,-,N/A,,Scattered Clouds,300,2012-11-19 13:55:00
3:55 PM,62.6,59.0,88,29.83,5.0,NE,6.9,-,N/A,Rain,Rain Showers,40,2012-11-19 14:55:00
4:00 PM,62,59,85,29.83,5,NE,6.9,,,Rain,Heavy Rain Showers,40,2012-11-19 15:00:00
6:55 PM,57.2,55.4,94,29.83,6.2,North,4.6,-,N/A,,Mostly Cloudy,350,2012-11-19 17:55:00
7:00 PM,58,55,85,29.83,7,North,4.6,,,,Partly Cloudy,350,2012-11-19 18:00:00
7:55 PM,57.2,53.6,88,29.83,6.2,NNE,9.2,-,N/A,,Mostly Cloudy,30,2012-11-19 18:55:00
9:55 PM,57.2,51.8,82,29.83,6.2,NNE,8.1,-,N/A,,Mostly Cloudy,20,2012-11-19 20:55:00
10:00 PM,57,52,79,29.84,7,NNE,8.1,,,,Scattered Clouds,20,2012-11-19 21:00:00
10:55 PM,55.4,51.8,88,29.83,6.2,NNE,8.1,-,N/A,,Mostly Cloudy,20,2012-11-19 21:55:00
11:55 PM,55.4,51.8,88,29.83,6.2,NNE,10.4,-,N/A,,Mostly Cloudy,20,2012-11-19 22:55:00